TimeEDT,TemperatureF,Dew PointF,Humidity,Sea Level PressureIn,VisibilityMPH,Wind Direction,Wind SpeedMPH,Gust SpeedMPH,PrecipitationIn,Events,Conditions,WindDirDegrees,DateUTC
12:53 AM,55.0,54.0,96,30.04,6.0,Calm,Calm,-,N/A,,Overcast,0,2012-10-03 04:53:00
1:53 AM,55.9,55.0,97,30.04,6.0,NNE,3.5,-,N/A,,Overcast,30,2012-10-03 05:53:00
2:17 AM,55.4,55.4,100,30.03,5.0,NE,4.6,-,N/A,,Overcast,40,2012-10-03 06:17:00
2:53 AM,55.9,55.0,97,30.04,6.0,NNE,4.6,-,N/A,,Overcast,30,2012-10-03 06:53:00
3:53 AM,57.0,55.9,96,30.04,5.0,NNE,5.8,-,N/A,,Overcast,30,2012-10-03 07:53:00
4:38 AM,57.2,55.4,94,30.04,4.0,Calm,Calm,-,N/A,,Overcast,0,2012-10-03 08:38:00
4:53 AM,57.0,55.9,96,30.04,4.0,NE,4.6,-,N/A,,Overcast,50,2012-10-03 08:53:00
5:53 AM,57.0,55.0,93,30.04,6.0,NE,5.8,-,N/A,,Overcast,40,2012-10-03 09:53:00
6:53 AM,57.0,55.9,96,30.06,6.0,NE,5.8,-,N/A,,Overcast,50,2012-10-03 10:53:00
7:53 AM,57.9,55.9,93,30.06,5.0,NE,8.1,-,N/A,,Overcast,40,2012-10-03 11:53:00
8:13 AM,57.2,55.4,94,30.07,5.0,NE,6.9,-,N/A,,Overcast,40,2012-10-03 12:13:00
8:53 AM,59.0,57.0,93,30.08,6.0,NE,6.9,-,N/A,,Overcast,40,2012-10-03 12:53:00
9:53 AM,60.1,57.0,90,30.09,7.0,ENE,10.4,-,N/A,,Overcast,60,2012-10-03 13:53:00
10:53 AM,63.0,57.9,84,30.08,10.0,NE,11.5,-,N/A,,Overcast,50,2012-10-03 14:53:00
11:08 AM,64.4,59.0,83,30.07,10.0,NE,10.4,-,N/A,,Overcast,50,2012-10-03 15:08:00
11:19 AM,64.4,57.2,77,30.06,10.0,NE,10.4,-,N/A,,Overcast,50,2012-10-03 15:19:00
11:53 AM,66.0,59.0,78,30.07,10.0,NE,10.4,-,N/A,,Overcast,50,2012-10-03 15:53:00
12:53 PM,68.0,59.0,73,30.06,10.0,ENE,10.4,-,N/A,,Partly Cloudy,60,2012-10-03 16:53:00
1:53 PM,68.0,59.0,73,30.05,10.0,East,8.1,-,N/A,,Partly Cloudy,80,2012-10-03 17:53:00
2:53 PM,69.1,60.1,73,30.05,10.0,NE,9.2,-,N/A,,Mostly Cloudy,50,2012-10-03 18:53:00
3:01 PM,69.8,60.8,73,30.05,10.0,ENE,8.1,-,N/A,,Overcast,70,2012-10-03 19:01:00
3:53 PM,68.0,59.0,73,30.06,10.0,NE,6.9,-,N/A,,Overcast,50,2012-10-03 19:53:00
4:53 PM,66.9,59.0,76,30.07,10.0,ENE,4.6,-,N/A,,Overcast,70,2012-10-03 20:53:00
5:53 PM,66.0,57.9,75,30.08,10.0,ENE,5.8,-,N/A,,Overcast,60,2012-10-03 21:53:00
6:53 PM,64.0,57.9,80,30.10,10.0,NE,3.5,-,N/A,,Overcast,50,2012-10-03 22:53:00
7:53 PM,64.0,57.9,80,30.10,10.0,Calm,Calm,-,N/A,,Overcast,0,2012-10-03 23:53:00
8:53 PM,63.0,57.9,84,30.11,10.0,Calm,Calm,-,N/A,,Overcast,0,2012-10-04 00:53:00
9:53 PM,63.0,59.0,87,30.11,10.0,Calm,Calm,-,N/A,,Overcast,0,2012-10-04 01:53:00
10:53 PM,63.0,59.0,87,30.11,10.0,Calm,Calm,-,N/A,,Overcast,0,2012-10-04 02:53:00
11:49 PM,62.6,60.8,94,30.11,9.0,Calm,Calm,-,N/A,,Overcast,0,2012-10-04 03:49:00
11:53 PM,62.1,60.1,93,30.12,9.0,Calm,Calm,-,N/A,,Overcast,0,2012-10-04 03:53:00